Regional Weather Roundup
Issued by NWS

Home | Current Version | Previous Version | Graphics & Text | Print | Product List | Glossary On
Versions: 1 2 3 4 5 6 7 8 9 10 11 12 13 14 15 16 17 18 19 20 21 22 23 24 25 26 27 28 29 30 31 32 33 34 35 36 37 38 39 40 41 42 43 44 45 46 47 48 49 50
186
ASUS45 KCYS 260210
RWRWY

WYOMING REGIONAL WEATHER ROUNDUP
NATIONAL WEATHER SERVICE CHEYENNE WY
800 PM MDT MON JUL 25 2016

NOTE:  "FAIR" INDICATES FEW OR NO CLOUDS BELOW 12,000 FEET
WITH NO SIGNIFICANT WEATHER AND/OR OBSTRUCTIONS TO VISIBILITY.

WYZ001-260300-
YELLOWSTONE NATIONAL PARK

CITY           SKY/WX    TMP DP  RH WIND       PRES   REMARKS
LK YELLOWSTONE   N/A     74  18  12 VRB6G17   30.34R
W YELLOWSTONE  NOT AVBL

$$
WYZ002>013-054>058-071-098>099-260300-
NORTHERN WYOMING

CITY           SKY/WX    TMP DP  RH WIND       PRES   REMARKS
JACKSON        CLEAR     82  27  13 SW14      30.21R
CODY           FAIR      88  34  14 S8        30.07R
GREYBULL       FAIR      95  22   7 CALM      29.94S
WORLAND        FAIR      92  31  11 CALM      29.97F
SHERIDAN       FAIR      91  37  15 E5        29.97S
BUFFALO        FAIR      89  33  13 NE3       30.07R
GILLETTE       FAIR      87  35  15 SW9       30.03R
HULETT         FAIR      82  45  26 E6        30.04R
NEWCASTLE      FAIR      88  41  19 E17       30.03S

$$
WYZ014>020-022>026-101>103-260300-
CENTRAL WYOMING

CITY           SKY/WX    TMP DP  RH WIND       PRES   REMARKS
BIG PINEY      FAIR      78  36  21 W10       30.24R
PINEDALE       FAIR      81  30  16 NW13      30.25R
DUBOIS         FAIR      77  21  12 NW12      30.24R
LANDER         FAIR      88  27  11 W10       30.07F
RIVERTON       FAIR      87  24  10 N5G18     30.08R
CASPER         FAIR      82  34  17 N8        30.07S
DOUGLAS          N/A    N/A N/A N/A MISG      30.06R

$$
WYZ021-027>030-104>119-260300-
SOUTHERN WYOMING

CITY           SKY/WX    TMP DP  RH WIND       PRES   REMARKS
EVANSTON       FAIR      82  22  11 W13       30.26S
KEMMERER         N/A    N/A N/A N/A W6        30.27R
FORT BRIDGER   FAIR      84  25  11 W14G21    30.27R
ROCK SPRINGS   FAIR      80  28  15 W12       30.26R
DIXON          FAIR      81  32  17 S9G17     30.25R
RAWLINS        FAIR      84  22  10 W9        30.22R
SARATOGA       FAIR      82  23  11 NW6G21    30.25S
LARAMIE        FAIR      78  27  15 NW7       30.25S
CHEYENNE       FAIR      78  59  51 SE15      30.18R
TORRINGTON     FAIR      84  58  40 SE13      30.02R
PINE BLUFFS    FAIR      77  61  57 SE15      30.13R

$$




USA.gov is the U.S. government's official web portal to all federal, state and local government web resources and services.